Wind_Speed
31 35 40 47 52 55 59 64 67 70 73 75 76 74 67 59 52 49 52 57 61 63 64 64 63 61 60 59 57 56 54 53 52 52 51 50 49 48 46 44 42 40 38 37
33 37 41 48 53 58 63 67 69 70 73 76 76 72 65 56 51 50 55 61 64 65 65 64 61 57 54 53 52 52 52 51 50 49 48 47 46 46 47 46 44 42 40 38
36 39 44 51 57 62 67 68 70 71 74 77 75 69 62 54 51 54 59 65 67 67 64 58 55 54 54 54 55 55 54 53 52 50 48 45 43 42 43 44 44 42 40 38
38 43 49 54 59 65 68 68 71 72 75 77 74 65 57 53 53 57 62 66 66 62 56 53 53 53 55 56 57 58 58 56 54 51 48 44 41 39 38 40 42 41 40 39
41 46 51 57 63 67 69 68 71 72 75 75 70 61 55 54 56 60 64 65 61 56 52 52 52 54 56 58 59 60 59 57 54 51 48 43 39 35 33 34 37 39 40 40
44 49 55 60 64 68 70 69 71 72 74 72 66 59 56 56 59 62 64 60 55 52 51 51 52 54 57 59 60 61 60 58 54 52 50 46 40 34 30 29 29 33 38 41
46 50 56 62 67 70 69 69 70 72 73 69 61 56 57 59 61 63 60 55 51 50 51 51 53 56 58 60 61 62 62 59 55 52 50 48 44 38 32 28 26 26 31 37
47 51 58 63 68 69 68 69 69 71 71 64 58 56 58 61 61 61 55 51 49 49 51 52 54 57 59 61 63 64 62 59 56 53 50 48 45 42 37 31 27 24 24 29
47 52 58 64 68 68 68 67 68 70 68 61 56 56 59 60 61 58 52 49 48 49 50 52 55 58 60 62 64 64 62 59 56 53 51 49 46 43 39 35 30 26 23 23
48 54 60 66 69 68 67 66 68 69 65 59 55 57 60 60 59 54 49 46 47 49 50 52 55 58 60 63 65 63 61 59 58 57 55 52 49 45 40 36 32 28 25 22
49 55 61 66 68 67 66 66 68 67 62 58 56 58 59 59 56 51 46 45 47 50 52 53 55 58 61 63 65 62 59 59 60 62 60 55 50 46 41 35 32 29 26 22
50 56 62 66 68 66 64 64 66 66 61 57 57 58 59 58 53 47 44 45 48 51 52 53 55 58 61 64 66 62 58 58 60 63 63 60 53 46 42 37 32 29 27 24
50 57 62 66 66 65 63 64 65 65 60 56 57 58 58 55 50 44 43 46 48 50 52 53 55 58 62 65 66 61 58 58 60 63 65 63 56 48 40 36 32 28 26 24
52 58 63 66 65 63 62 63 64 63 58 57 57 57 57 53 47 42 43 46 48 49 51 51 53 58 62 65 65 61 58 58 60 62 65 66 61 52 43 35 30 27 24 23
53 58 63 65 63 61 60 62 63 61 57 56 56 56 55 50 44 41 42 45 47 48 50 50 52 57 62 64 65 61 57 58 59 61 65 69 67 59 48 38 31 25 22 20
54 59 62 64 61 60 60 61 63 60 56 55 55 55 53 47 41 40 42 44 46 47 48 49 51 56 61 63 64 61 57 58 61 62 63 67 69 66 56 44 35 27 22 18
55 59 62 62 60 58 59 61 61 58 55 54 54 53 50 44 40 40 43 45 46 47 48 48 50 54 59 62 63 61 58 59 61 62 62 64 67 69 65 54 42 32 25 19
54 58 60 60 58 57 58 60 59 57 54 53 52 51 47 41 38 39 41 43 45 47 48 48 49 52 57 60 61 62 61 59 60 61 62 62 65 67 68 64 56 44 34 26
54 58 60 58 57 57 57 58 58 56 53 51 51 49 45 39 36 37 39 41 43 45 46 46 47 50 54 57 60 62 61 59 58 59 59 60 61 62 64 65 64 60 51 41
55 59 59 57 56 56 56 57 56 54 51 49 49 47 42 37 35 37 39 41 44 45 45 45 45 48 51 55 58 60 60 59 57 56 57 59 60 61 61 62 62 62 60 56
56 59 58 56 54 54 55 56 55 52 49 47 47 45 40 35 33 35 38 41 43 44 44 44 43 45 50 54 56 57 58 58 57 55 56 58 59 60 60 59 59 58 57 57
56 58 57 54 53 53 54 54 53 50 47 45 45 43 38 33 32 33 36 39 40 42 43 43 42 43 48 52 53 54 55 57 57 56 56 57 58 59 59 58 57 56 55 54
55 56 55 53 51 51 52 52 51 49 45 44 43 41 36 32 31 32 34 36 38 40 42 43 42 42 45 49 51 51 52 54 56 57 57 57 58 59 59 59 58 57 55 53
55 55 53 51 50 49 50 50 49 46 43 42 42 40 35 30 28 29 31 33 35 38 41 42 42 40 41 45 48 49 50 51 53 55 56 56 57 58 58 59 59 58 57 55
53 53 51 48 47 47 48 48 47 44 41 40 41 39 34 29 26 27 29 31 32 35 39 40 41 40 39 40 44 46 48 49 50 52 53 53 55 56 57 57 58 58 58 58
52 51 48 46 45 45 46 46 44 42 39 39 39 38 34 28 25 25 26 28 30 32 35 38 39 39 38 37 39 42 44 46 47 49 50 51 52 53 54 56 56 57 57 57
50 48 45 43 42 43 44 44 42 39 37 37 37 37 33 28 24 23 24 26 28 30 32 34 36 37 37 36 36 37 40 42 44 45 47 48 49 51 52 53 54 55 55 55
Wind_Direction
330 331 333 333 334 335 336 335 333 333 333 333 334 335 335 332 330 332 334 334 334 333 331 330 328 326 324 323 322 320 318 315 310 305 299 293 288 284 282 281 280 278 276 275
328 328 331 333 335 337 338 336 334 335 334 334 335 336 337 335 332 333 334 334 334 333 332 331 331 333 335 336 335 333 330 327 322 316 308 299 290 283 278 275 274 273 271 270
327 328 331 336 337 338 338 337 335 335 335 336 337 339 340 338 336 337 335 335 334 334 335 337 340 342 343 343 343 341 339 336 331 326 319 310 299 286 277 271 267 266 265 264
327 329 334 337 337 338 337 337 336 336 336 337 339 342 342 340 339 337 335 335 335 337 340 343 345 347 348 348 347 346 344 342 339 335 330 323 314 300 285 273 264 260 257 257
329 331 333 336 338 338 337 337 337 336 337 339 342 343 344 342 340 338 336 337 339 342 345 347 349 349 348 347 347 347 346 344 342 341 339 335 328 317 302 288 273 261 254 250
329 332 335 337 337 337 336 337 337 337 338 341 343 344 345 343 341 339 338 340 343 345 348 350 350 349 349 349 348 348 347 345 344 343 342 340 337 331 320 306 290 273 259 250
331 334 336 337 337 337 337 338 337 338 341 343 345 345 344 343 341 340 341 343 345 347 349 350 351 350 350 350 349 348 348 347 345 344 343 343 341 337 330 319 306 289 270 257
331 334 336 336 336 336 337 337 338 339 342 344 345 345 344 343 342 342 343 344 347 349 349 350 350 350 350 350 350 349 348 347 346 345 343 343 342 340 335 327 317 304 286 267
330 331 333 335 336 336 336 337 338 340 344 345 345 345 344 343 343 343 344 346 349 350 350 350 350 350 351 351 351 351 350 350 350 348 345 343 341 339 335 331 324 315 301 282
328 329 332 334 335 335 336 337 338 342 344 345 345 345 344 344 344 345 346 349 351 352 352 351 351 351 352 352 353 353 354 354 354 352 349 344 340 337 333 329 325 320 313 299
327 328 331 333 335 335 336 337 339 343 345 345 345 345 344 344 345 346 348 351 353 354 354 354 354 353 354 354 355 355 355 356 356 356 353 348 343 338 333 329 323 319 315 310
327 329 331 333 335 335 336 336 340 344 346 345 345 345 345 346 347 348 351 353 354 355 355 355 355 355 356 356 356 357 357 358 358 358 356 352 348 342 336 331 325 319 314 310
327 329 332 334 335 335 336 336 341 344 346 345 345 345 346 347 348 350 352 354 355 356 356 357 357 358 358 358 359 359 360 360 359 359 359 356 351 346 340 333 326 319 312 306
326 329 332 334 335 335 335 337 341 345 346 345 345 346 347 348 349 352 354 355 355 356 356 358 359 0 1 0 1 1 1 1 1 1 2 1 358 353 347 340 330 320 312 304
325 328 331 333 334 334 335 337 343 346 345 345 346 347 348 349 351 353 354 355 356 356 357 358 360 1 2 2 2 2 2 3 3 4 6 6 5 2 357 351 343 333 321 310
326 328 331 333 334 334 335 339 344 346 345 345 346 347 349 350 352 354 355 356 357 357 358 359 360 1 3 4 4 4 4 5 6 7 8 10 11 10 8 3 357 350 340 328
326 329 332 334 334 334 335 340 344 345 346 346 347 348 350 352 353 354 355 356 358 359 360 360 0 2 4 6 6 6 7 9 9 9 10 12 14 17 17 16 12 7 2 355
327 331 333 334 334 334 336 340 343 345 346 346 347 349 351 353 355 355 356 358 360 0 1 1 1 2 6 7 7 9 11 12 11 11 13 14 17 20 23 25 26 24 22 19
330 333 335 334 333 334 336 340 343 345 345 346 347 349 352 353 355 357 359 0 2 2 2 2 2 4 7 8 10 12 14 15 14 14 15 17 19 22 25 28 32 35 36 35
331 333 335 334 332 334 336 339 343 345 345 346 347 350 352 353 355 358 360 1 2 3 5 4 5 7 8 10 12 15 16 17 17 16 18 20 22 24 26 29 32 36 39 42
329 332 333 332 331 333 336 339 343 344 345 346 348 351 352 353 356 359 1 2 3 4 5 6 7 8 10 13 15 16 18 20 20 20 21 23 25 26 28 30 32 34 37 40
328 330 330 330 330 332 335 339 343 344 344 346 348 351 352 352 356 360 3 3 4 5 6 8 10 11 14 16 17 18 20 22 23 23 24 26 27 28 29 31 33 34 36 38
327 328 328 328 329 332 335 339 342 343 344 346 348 351 351 352 356 360 2 3 4 7 9 11 13 15 17 19 19 20 22 24 25 26 27 28 29 30 31 32 33 35 36 37
325 327 326 326 328 331 335 338 341 342 343 346 348 351 351 350 353 357 360 1 4 7 10 13 15 17 19 21 21 22 23 25 26 27 28 29 31 32 32 33 34 35 36 37
323 324 324 324 326 330 334 337 340 341 342 345 347 349 349 347 349 354 356 358 1 6 10 13 15 17 18 19 21 23 24 25 26 27 28 29 31 32 33 34 35 36 37 38
321 321 321 322 325 329 333 337 339 339 340 343 346 348 347 345 345 349 351 353 358 3 8 11 14 16 17 16 18 21 23 25 26 27 28 29 31 33 34 35 36 36 37 38
318 318 318 320 324 328 332 336 337 337 339 343 345 347 346 343 341 343 346 349 353 359 4 7 11 14 16 16 16 18 21 23 24 26 28 29 31 33 35 36 36 37 37 38
Height
5811 5806 5800 5792 5782 5771 5759 5745 5732 5718 5703 5688 5672 5654 5639 5625 5614 5605 5595 5584 5571 5558 5545 5532 5519 5507 5494 5483 5472 5461 5452 5443 5435 5429 5423 5419 5415 5413 5410 5409 5408 5407 5405 5404
5808 5801 5794 5786 5774 5763 5751 5737 5722 5709 5694 5678 5661 5644 5630 5618 5608 5599 5588 5576 5562 5548 5534 5521 5508 5496 5484 5473 5461 5450 5439 5429 5420 5411 5404 5399 5395 5393 5392 5391 5391 5391 5390 5390
5801 5794 5788 5778 5767 5755 5742 5728 5714 5701 5687 5669 5653 5637 5623 5611 5601 5591 5580 5567 5553 5539 5524 5511 5499 5488 5477 5465 5454 5442 5431 5419 5408 5397 5388 5381 5376 5373 5372 5371 5372 5373 5374 5375
5794 5789 5780 5775 5760 5747 5734 5720 5705 5690 5675 5659 5643 5629 5616 5605 5595 5585 5573 5559 5545 5531 5517 5505 5494 5483 5471 5460 5448 5436 5423 5411 5399 5388 5377 5368 5361 5356 5353 5353 5353 5355 5358 5360
5788 5781 5774 5764 5751 5739 5726 5714 5699 5683 5668 5653 5638 5625 5613 5601 5590 5578 5564 5551 5537 5524 5512 5501 5490 5479 5468 5456 5443 5430 5417 5405 5392 5381 5370 5360 5351 5344 5340 5337 5337 5338 5340 5343
5783 5775 5766 5758 5745 5731 5718 5705 5690 5676 5662 5646 5632 5620 5608 5595 5583 5569 5556 5543 5530 5519 5508 5498 5487 5476 5464 5451 5439 5426 5412 5399 5386 5374 5363 5353 5344 5336 5330 5326 5323 5323 5324 5327
5777 5769 5760 5749 5736 5723 5711 5698 5681 5667 5653 5638 5624 5611 5600 5588 5576 5562 5550 5537 5526 5515 5505 5495 5484 5472 5460 5447 5434 5420 5406 5393 5380 5368 5357 5347 5337 5329 5323 5318 5314 5311 5310 5312
5771 5762 5755 5743 5730 5718 5705 5689 5675 5661 5647 5632 5619 5607 5595 5583 5570 5558 5545 5534 5523 5513 5503 5492 5481 5469 5456 5443 5429 5415 5400 5387 5374 5362 5352 5342 5332 5323 5315 5309 5305 5301 5299 5298
5767 5760 5749 5737 5724 5711 5697 5684 5670 5657 5642 5628 5616 5604 5592 5579 5566 5554 5542 5532 5522 5511 5501 5489 5478 5466 5453 5440 5426 5411 5396 5382 5370 5357 5346 5336 5327 5318 5310 5302 5296 5292 5288 5286
5761 5752 5742 5730 5717 5705 5691 5678 5665 5650 5636 5623 5612 5600 5588 5575 5563 5551 5540 5530 5521 5510 5499 5488 5476 5463 5450 5436 5422 5407 5393 5379 5366 5354 5342 5330 5319 5310 5302 5295 5289 5283 5279 5276
5755 5746 5736 5724 5711 5699 5685 5672 5659 5645 5631 5619 5608 5597 5584 5572 5559 5548 5538 5529 5519 5509 5498 5487 5475 5462 5448 5434 5420 5405 5391 5377 5364 5350 5337 5325 5312 5301 5293 5286 5279 5274 5270 5267
5749 5740 5730 5718 5705 5692 5680 5667 5654 5640 5627 5615 5605 5593 5581 5569 5556 5546 5537 5528 5518 5507 5496 5485 5473 5461 5447 5432 5418 5403 5389 5376 5362 5348 5334 5320 5307 5295 5284 5276 5270 5265 5260 5258
5743 5734 5723 5711 5699 5686 5674 5662 5649 5636 5623 5612 5601 5589 5577 5565 5554 5544 5536 5527 5517 5506 5495 5484 5473 5460 5446 5431 5416 5401 5387 5374 5361 5346 5332 5316 5301 5288 5278 5269 5260 5256 5252 5249
5736 5727 5717 5705 5693 5680 5669 5657 5644 5631 5619 5608 5597 5586 5574 5563 5552 5543 5535 5526 5516 5505 5495 5484 5472 5460 5446 5431 5416 5401 5388 5375 5361 5347 5332 5315 5297 5282 5270 5260 5253 5247 5243 5240
5730 5721 5711 5699 5686 5675 5664 5652 5640 5627 5615 5605 5594 5583 5571 5560 5551 5542 5534 5525 5515 5505 5495 5484 5473 5460 5446 5432 5417 5402 5389 5377 5363 5348 5332 5314 5296 5278 5264 5253 5245 5238 5234 5232
5724 5715 5703 5692 5680 5670 5659 5647 5635 5623 5612 5601 5591 5580 5568 5557 5549 5542 5534 5525 5515 5505 5495 5484 5473 5461 5448 5434 5419 5404 5391 5377 5363 5348 5333 5318 5300 5281 5263 5249 5240 5233 5228 5225
5718 5708 5696 5685 5674 5664 5653 5642 5630 5619 5608 5598 5588 5577 5566 5555 5547 5539 5531 5523 5514 5504 5494 5484 5473 5462 5450 5435 5422 5408 5393 5379 5365 5352 5338 5323 5307 5288 5269 5252 5240 5232 5226 5222
5710 5700 5689 5678 5668 5658 5648 5637 5626 5615 5605 5596 5585 5574 5564 5554 5547 5539 5531 5522 5513 5503 5494 5484 5474 5464 5451 5439 5426 5411 5395 5382 5370 5357 5344 5329 5313 5297 5280 5263 5248 5236 5228 5223
5702 5693 5682 5672 5662 5652 5643 5633 5622 5612 5602 5592 5582 5572 5562 5554 5547 5540 5532 5524 5515 5506 5496 5486 5477 5466 5454 5443 5430 5414 5401 5388 5376 5365 5352 5338 5323 5308 5293 5278 5264 5250 5239 5230
5695 5685 5675 5665 5656 5647 5638 5628 5618 5608 5599 5589 5579 5570 5560 5552 5545 5539 5532 5524 5515 5506 5497 5489 5479 5469 5459 5447 5433 5420 5407 5395 5383 5373 5361 5347 5332 5319 5305 5293 5280 5268 5257 5247
5687 5678 5668 5659 5650 5642 5633 5624 5614 5605 5596 5587 5578 5568 5560 5552 5546 5539 5531 5524 5516 5507 5499 5490 5481 5472 5462 5450 5438 5426 5415 5402 5391 5380 5368 5355 5342 5330 5318 5306 5295 5284 5274 5264
5680 5671 5661 5653 5645 5637 5629 5620 5610 5601 5593 5584 5576 5567 5559 5552 5546 5540 5533 5525 5518 5510 5501 5492 5483 5474 5464 5454 5443 5433 5422 5411 5400 5389 5377 5365 5353 5341 5330 5319 5308 5298 5288 5279
5672 5664 5655 5647 5640 5632 5624 5616 5607 5598 5590 5582 5574 5566 5558 5551 5545 5539 5533 5526 5519 5512 5503 5494 5485 5476 5468 5459 5450 5440 5430 5419 5408 5398 5386 5375 5363 5353 5342 5331 5321 5311 5301 5293
5664 5656 5649 5641 5634 5627 5619 5611 5603 5595 5588 5580 5573 5565 5557 5551 5546 5540 5534 5527 5521 5513 5505 5496 5488 5479 5472 5464 5456 5447 5437 5427 5417 5407 5396 5386 5374 5364 5354 5343 5333 5324 5314 5306
5656 5649 5641 5635 5628 5621 5614 5607 5599 5592 5585 5578 5570 5563 5555 5550 5545 5539 5534 5528 5522 5515 5507 5499 5491 5483 5476 5468 5461 5452 5443 5434 5425 5415 5406 5396 5386 5375 5365 5356 5346 5337 5328 5319
5648 5641 5634 5628 5622 5616 5609 5602 5595 5588 5581 5575 5568 5561 5554 5548 5543 5539 5534 5529 5523 5516 5509 5502 5494 5487 5480 5472 5465 5457 5449 5441 5433 5424 5415 5406 5396 5386 5376 5367 5358 5349 5341 5332
5639 5633 5626 5621 5615 5610 5604 5597 5591 5584 5578 5571 5565 5558 5552 5546 5541 5537 5533 5529 5523 5517 5511 5505 5498 5490 5483 5476 5469 5462 5455 5447 5440 5432 5423 5415 5406 5397 5387 5379 5370 5362 5353 5345